Погода в Снежном

Россия / Хабаровский край     50°15′59″N   137°56′50″E
темп.,
°C
ветер,
м/с
пор.,
м/с
влажн.,
%
обл.,
%
осадки,
мм/ч
давл.,
гПа
погр.,
м
10 апреля, сб
сб1001:00−4ююв22845 0.0 102325
04:00−4ююв22853 0.0 102324
07:00−4ююв22813 0.0 102359
10:00+2ююз35635 0.0 1023582
13:00+5юз57512 0.0 10221100
16:00+8юз58485 0.0 10211396
19:00+3ю22671 0.0 102127
22:00+1ююв33735 0.0 102234
11 апреля, вс
вс1101:000ю35733 0.0 102262
04:000ююв347172 0.0 102149
07:00+2ю4136417 0.0 1020346
10:00+6юз71560100 0.1 10191213
13:00+3ююз51495100 1.7 10191009
16:00+5юз61281100 1.7 1018968
19:00+4ююз4119154 0.0 1018477
22:00+1юз1196100 0.1 102011
12 апреля, пн
пн1201:00+1вюв1194100 0.0 101911
04:00+1вюв2188100 0.1 101817
07:00+1всв1191100 0.1 101719
10:00+3зсз1178100 0.1 1016383
13:00+2ююз0085100 0.1 1015229
16:00+1с2296100 2.6 1013181
19:000с23100100 3.9 1013144
22:000ссв2399100 7.6 1011152
13 апреля, вт
вт1301:00−2ссв2498100 2.3 1007192
04:00−4с3697100 7.2 1006306
07:00−5ссв3597100 6.0 1006303
10:00−4с2394100 10.5 1006405
13:00−4сз3293100 2.3 1007546
16:00−4сз3391100 3.1 1007655
19:00−6сз129441 0.2 1007102
22:00−12ссв1110089 0.3 100810
14 апреля, ср
ср1401:00−12с1199100 0.1 100816
04:00−12ссз119999 0.2 100819
07:00−10зюз1197100 0.1 100954
10:00−6зсз3587100 0.6 1009965
13:00−4зсз5682100 0.6 10101427
16:00−3зсз4672100 0.9 10101378
19:00−5юз119375 0.4 101243
22:00−10юв229590 0.4 101411